Date String (YYYY-MM-DD hh:mm:ss) UTC,Instrument flags,Ambient pressure (hPa),Sample flow (lpm),Bypass flow (lpm),Sample temperature (°C),Ambient temperature (°C),ASC tube jacket temperature (°C),LED temperature (°C),Box temperature (°C),Sample RH (%),Span deviation,Mass concentration (μg/m³),Mass concentration (μg/m³),Mass concentration (μg/m³)
DateTimeUTC,F1_M11,P_M11,Q1_M11,Q2_M11,T1_M11,T2_M11,T3_M11,T4_M11,T5_M11,U1_M11,ZSPAN_M11,X0_M11,X2_M11,X1_M11
2021-11-04 11:00:00,,0829.6,5.00,0.00,24.9,23.9,00.0,34.0,26.6,15.9,0000.0,0004.42,0003.45,0003.28
2021-11-04 11:01:00,,0829.6,5.01,0.00,24.9,23.9,00.0,34.0,26.6,15.9,0000.0,0004.61,0003.44,0003.27
2021-11-04 11:02:00,,0829.6,4.99,0.00,24.9,23.9,00.0,34.0,26.6,15.8,0000.0,0004.66,0003.44,0003.27
2021-11-04 11:03:00,,0829.6,5.00,0.00,24.8,23.9,00.0,34.0,26.6,15.8,0000.0,0004.63,0003.41,0003.25
2021-11-04 11:04:00,,0829.7,5.00,0.00,24.8,23.9,00.0,33.9,26.6,15.8,0000.0,0004.54,0003.39,0003.24
2021-11-04 11:05:00,,0829.8,4.99,0.00,24.8,23.9,00.0,33.9,26.6,15.8,0000.0,0004.46,0003.36,0003.23
2021-11-04 11:06:00,,0829.8,5.01,0.00,24.8,23.9,00.0,33.9,26.6,15.8,0000.0,0004.44,0003.36,0003.22
2021-11-04 11:07:00,,0829.7,4.99,0.00,24.8,23.9,00.0,33.9,26.5,15.8,0000.0,0004.42,0003.35,0003.21
2021-11-04 11:08:00,,0829.8,5.00,0.00,24.8,23.9,00.0,33.9,26.6,15.8,0000.0,0004.38,0003.33,0003.20
2021-11-04 11:09:00,,0829.7,5.01,0.00,24.8,23.8,00.0,33.9,26.6,15.8,0000.0,0004.29,0003.30,0003.17
2021-11-04 11:10:00,,0829.6,4.99,0.00,24.8,23.9,00.0,33.9,26.6,15.8,0000.0,0004.27,0003.29,0003.16
2021-11-04 11:11:00,,0829.7,5.01,0.00,24.8,23.9,00.0,33.9,26.5,15.9,0000.0,0004.23,0003.28,0003.16
2021-11-04 11:12:00,,0829.8,5.00,0.00,24.8,23.9,00.0,33.9,26.6,15.9,0000.0,0004.14,0003.28,0003.17
2021-11-04 11:13:00,,0829.7,5.00,0.00,24.8,23.8,00.0,33.9,26.5,15.9,0000.0,0004.03,0003.28,0003.18
2021-11-04 11:14:00,,0829.8,5.01,0.00,24.8,23.8,00.0,33.9,26.5,16.0,0000.0,0004.02,0003.31,0003.21
2021-11-04 11:15:00,,0829.8,5.00,0.00,24.8,23.8,00.0,33.9,26.4,16.0,0000.0,0004.23,0003.36,0003.23
2021-11-04 11:16:00,,0829.8,5.01,0.00,24.8,23.8,00.0,33.9,26.5,16.0,0000.0,0004.41,0003.41,0003.25
2021-11-04 11:17:00,,0829.8,4.99,0.00,24.7,23.8,00.0,33.9,26.5,16.1,0000.0,0005.38,0003.45,0003.29
2021-11-04 11:18:00,,0829.8,5.00,0.00,24.7,23.8,00.0,33.9,26.5,16.1,0000.0,0007.03,0003.48,0003.31
2021-11-04 11:19:00,,0829.8,5.00,0.00,24.7,23.8,00.0,33.9,26.5,16.0,0000.0,0007.23,0003.52,0003.34
2021-11-04 11:20:00,,0829.7,5.00,0.00,24.7,23.8,00.0,33.8,26.5,16.0,0000.0,0007.40,0003.58,0003.38
2021-11-04 11:21:00,,0829.7,5.00,0.00,24.7,23.8,00.0,33.8,26.6,16.0,0000.0,0007.51,0003.64,0003.42
2021-11-04 11:22:00,,0829.7,5.00,0.00,24.7,23.8,00.0,33.8,26.6,16.0,0000.0,0007.57,0003.67,0003.44
2021-11-04 11:23:00,,0829.7,4.99,0.00,24.7,23.8,00.0,33.8,26.5,16.0,0000.0,0007.69,0003.70,0003.45
2021-11-04 11:24:00,,0829.7,5.01,0.00,24.7,23.8,00.0,33.8,26.5,16.0,0000.0,0007.75,0003.73,0003.46
2021-11-04 11:25:00,,0829.7,4.99,0.00,24.7,23.8,00.0,33.8,26.5,16.0,0000.0,0007.77,0003.73,0003.45
2021-11-04 11:26:00,,0829.7,4.99,0.00,24.7,23.8,00.0,33.8,26.5,16.1,0000.0,0007.66,0003.69,0003.44
2021-11-04 11:27:00,,0829.7,5.01,0.00,24.7,23.8,00.0,33.8,26.5,16.1,0000.0,0007.69,0003.69,0003.43
2021-11-04 11:28:00,,0829.7,5.00,0.00,24.7,23.8,00.0,33.8,26.5,16.1,0000.0,0006.96,0003.70,0003.42
2021-11-04 11:29:00,,0829.7,5.01,0.00,24.7,23.8,00.0,33.8,26.5,16.1,0000.0,0005.62,0003.70,0003.42
2021-11-04 11:30:00,,0829.7,4.99,0.00,24.7,23.8,00.0,33.8,26.4,16.1,0000.0,0005.50,0003.69,0003.43
2021-11-04 11:31:00,,0829.7,5.01,0.00,24.7,23.8,00.0,33.8,26.5,16.1,0000.0,0005.47,0003.69,0003.43
2021-11-04 11:32:00,,0829.8,4.98,0.00,24.7,23.8,00.0,33.8,26.5,16.1,0000.0,0005.42,0003.69,0003.42
2021-11-04 11:33:00,,0829.8,5.01,0.00,24.7,23.8,00.0,33.8,26.5,16.2,0000.0,0005.40,0003.70,0003.43
2021-11-04 11:34:00,,0829.7,4.98,0.00,24.7,23.8,00.0,33.8,26.5,16.2,0000.0,0005.16,0003.69,0003.44
2021-11-04 11:35:00,,0829.7,5.00,0.00,24.7,23.8,00.0,33.8,26.5,16.2,0000.0,0005.09,0003.69,0003.45
2021-11-04 11:36:00,,0829.8,5.00,0.00,24.7,23.8,00.0,33.8,26.5,16.2,0000.0,0005.13,0003.71,0003.48
2021-11-04 11:37:00,,0829.8,4.98,0.00,24.7,23.8,00.0,33.7,26.4,16.2,0000.0,0005.33,0003.76,0003.50
2021-11-04 11:38:00,,0829.8,5.00,0.00,24.7,23.8,00.0,33.7,26.4,16.2,0000.0,0005.21,0003.75,0003.51
2021-11-04 11:39:00,,0829.7,5.00,0.00,24.6,23.8,00.0,33.7,26.4,16.2,0000.0,0005.12,0003.74,0003.52
2021-11-04 11:40:00,,0829.7,5.00,0.00,24.7,23.7,00.0,33.7,26.4,16.2,0000.0,0005.13,0003.74,0003.53
2021-11-04 11:41:00,,0829.7,4.99,0.00,24.6,23.7,00.0,33.7,26.4,16.2,0000.0,0005.17,0003.75,0003.53
2021-11-04 11:42:00,,0829.7,5.00,0.00,24.6,23.7,00.0,33.7,26.4,16.2,0000.0,0005.23,0003.74,0003.53
2021-11-04 11:43:00,,0829.8,5.01,0.00,24.6,23.7,00.0,33.7,26.4,16.2,0000.0,0005.36,0003.75,0003.55
2021-11-04 11:44:00,,0829.7,5.00,0.00,24.6,23.7,00.0,33.7,26.4,16.2,0000.0,0005.43,0003.76,0003.55
2021-11-04 11:45:00,,0829.7,5.00,0.00,24.6,23.7,00.0,33.7,26.4,16.2,0000.0,0005.53,0003.78,0003.54
2021-11-04 11:46:00,,0829.8,4.99,0.00,24.6,23.7,00.0,33.7,26.3,16.2,0000.0,0005.49,0003.77,0003.54
2021-11-04 11:47:00,,0829.7,5.01,0.00,24.6,23.7,00.0,33.7,26.4,16.2,0000.0,0005.47,0003.75,0003.53
2021-11-04 11:48:00,,0829.7,5.00,0.00,24.6,23.7,00.0,33.7,26.4,16.2,0000.0,0005.37,0003.73,0003.52
2021-11-04 11:49:00,,0829.8,4.99,0.00,24.6,23.7,00.0,33.7,26.4,16.2,0000.0,0005.40,0003.71,0003.50
2021-11-04 11:50:00,,0829.8,5.01,0.00,24.6,23.7,00.0,33.7,26.4,16.2,0000.0,0005.41,0003.71,0003.50
2021-11-04 11:51:00,,0829.8,4.99,0.00,24.6,23.7,00.0,33.7,26.4,16.2,0000.0,0005.45,0003.70,0003.49
2021-11-04 11:52:00,,0829.8,5.00,0.00,24.6,23.7,00.0,33.7,26.4,16.2,0000.0,0005.50,0003.71,0003.49
2021-11-04 11:53:00,,0829.8,4.99,0.00,24.6,23.7,00.0,33.7,26.3,16.2,0000.0,0005.37,0003.71,0003.50
2021-11-04 11:54:00,,0829.8,5.00,0.00,24.6,23.7,00.0,33.7,26.3,16.3,0000.0,0005.25,0003.70,0003.50
2021-11-04 11:55:00,,0829.8,5.00,0.00,24.6,23.7,00.0,33.7,26.4,16.3,0000.0,0005.34,0003.71,0003.51
2021-11-04 11:56:00,,0829.8,5.01,0.00,24.6,23.7,00.0,33.7,26.4,16.3,0000.0,0005.27,0003.70,0003.52
2021-11-04 11:57:00,,0829.8,4.99,0.00,24.6,23.7,00.0,33.7,26.4,16.3,0000.0,0005.44,0003.73,0003.54
2021-11-04 11:58:00,,0829.8,4.99,0.00,24.6,23.6,00.0,33.6,26.3,16.3,0000.0,0006.93,0003.73,0003.55
2021-11-04 11:59:00,,0829.8,5.00,0.00,24.6,23.6,00.0,33.6,26.4,16.3,0000.0,0006.81,0003.72,0003.56
